Time,TemperatureF,DewpointF,PressureIn,WindDirection,WindDirectionDegrees,WindSpeedMPH,WindSpeedGustMPH,Humidity,HourlyPrecipIn,Conditions,Clouds,dailyrainin,SolarRadiationWatts/m^2,SoftwareType,DateUTC
2013-10-15 00:13:00,60.0,46.0,-100.00,SE,138,19.0,29.0,60,0.00,,,0.02,0.000000,,2013-10-15 05:13:00,
2013-10-15 00:22:00,60.0,46.0,-100.00,SE,138,19.0,29.0,60,0.00,,,0.02,0.000000,,2013-10-15 05:22:00,
2013-10-15 00:34:00,60.0,46.0,-100.00,SE,138,19.0,29.0,60,0.00,,,0.02,0.000000,,2013-10-15 05:34:00,
2013-10-15 00:42:00,60.0,46.0,-100.00,SE,138,19.0,29.0,60,0.00,,,0.02,0.000000,,2013-10-15 05:42:00,
2013-10-15 01:12:00,58.0,50.0,-100.00,SE,146,17.0,30.0,75,0.01,,,0.03,0.000000,,2013-10-15 06:12:00,
2013-10-15 01:22:00,58.0,50.0,-100.00,SE,146,17.0,30.0,75,0.01,,,0.03,0.000000,,2013-10-15 06:22:00,
2013-10-15 01:32:00,58.0,50.0,-100.00,SE,146,17.0,30.0,75,0.01,,,0.03,0.000000,,2013-10-15 06:32:00,
2013-10-15 01:43:00,58.0,50.0,-100.00,SE,146,17.0,30.0,75,0.01,,,0.03,0.000000,,2013-10-15 06:43:00,
2013-10-15 02:12:00,55.0,53.0,-100.00,SSE,156,10.0,21.0,94,0.29,,,0.32,0.000000,,2013-10-15 07:12:00,
2013-10-15 02:22:00,55.0,53.0,-100.00,SSE,156,10.0,21.0,94,0.29,,,0.32,0.000000,,2013-10-15 07:22:00,
2013-10-15 02:32:00,55.0,53.0,-100.00,SSE,156,10.0,21.0,94,0.29,,,0.32,0.000000,,2013-10-15 07:32:00,
2013-10-15 02:42:00,55.0,53.0,-100.00,SSE,156,10.0,21.0,94,0.29,,,0.32,0.000000,,2013-10-15 07:42:00,
2013-10-15 03:12:00,56.0,55.0,-100.00,SSE,147,16.0,25.0,95,0.01,,,0.33,0.000000,,2013-10-15 08:12:00,
2013-10-15 03:22:00,56.0,55.0,-100.00,SSE,147,16.0,25.0,95,0.01,,,0.33,0.000000,,2013-10-15 08:22:00,
2013-10-15 03:32:00,56.0,55.0,-100.00,SSE,147,16.0,25.0,95,0.01,,,0.33,0.000000,,2013-10-15 08:32:00,
2013-10-15 03:42:00,56.0,55.0,-100.00,SSE,147,16.0,25.0,95,0.01,,,0.33,0.000000,,2013-10-15 08:42:00,
2013-10-15 04:12:00,58.0,56.0,-100.00,South,176,11.0,22.0,94,0.00,,,0.33,0.000000,,2013-10-15 09:12:00,
2013-10-15 04:22:00,58.0,56.0,-100.00,South,176,11.0,22.0,94,0.00,,,0.33,0.000000,,2013-10-15 09:22:00,
2013-10-15 04:33:00,58.0,56.0,-100.00,South,176,11.0,22.0,94,0.00,,,0.33,0.000000,,2013-10-15 09:33:00,
2013-10-15 04:43:00,58.0,56.0,-100.00,South,176,11.0,22.0,94,0.00,,,0.33,0.000000,,2013-10-15 09:43:00,
2013-10-15 05:13:00,59.0,57.0,-100.00,South,183,12.0,17.0,94,0.00,,,0.33,0.000000,,2013-10-15 10:13:00,
2013-10-15 05:23:00,59.0,57.0,-100.00,South,183,12.0,17.0,94,0.00,,,0.33,0.000000,,2013-10-15 10:23:00,
2013-10-15 05:32:00,59.0,57.0,-100.00,South,183,12.0,17.0,94,0.00,,,0.33,0.000000,,2013-10-15 10:32:00,
2013-10-15 05:42:00,59.0,57.0,-100.00,South,183,12.0,17.0,94,0.00,,,0.33,0.000000,,2013-10-15 10:42:00,
2013-10-15 06:12:00,57.0,53.0,-100.00,WSW,254,19.0,25.0,86,0.00,,,-99.99,0.000000,,2013-10-15 11:12:00,
2013-10-15 06:22:00,57.0,53.0,-100.00,WSW,254,19.0,25.0,86,0.00,,,-99.99,0.000000,,2013-10-15 11:22:00,
2013-10-15 06:33:00,57.0,53.0,-100.00,WSW,254,19.0,25.0,86,0.00,,,-99.99,0.000000,,2013-10-15 11:33:00,
2013-10-15 06:42:00,57.0,53.0,-100.00,WSW,254,19.0,25.0,86,0.00,,,-99.99,0.000000,,2013-10-15 11:42:00,
2013-10-15 07:12:00,53.0,49.0,-100.00,WSW,249,11.0,25.0,85,0.00,,,0.33,0.000000,,2013-10-15 12:12:00,
2013-10-15 07:22:00,53.0,49.0,-100.00,WSW,249,11.0,25.0,85,0.00,,,0.33,0.000000,,2013-10-15 12:22:00,
2013-10-15 07:32:00,53.0,49.0,-100.00,WSW,249,11.0,25.0,85,0.00,,,0.33,0.000000,,2013-10-15 12:32:00,
2013-10-15 07:42:00,53.0,49.0,-100.00,WSW,249,11.0,25.0,85,0.00,,,0.33,0.000000,,2013-10-15 12:42:00,
2013-10-15 08:11:00,52.0,46.0,-100.00,SW,235,15.0,23.0,80,0.00,,,0.33,2.000000,,2013-10-15 13:11:00,
2013-10-15 08:21:00,52.0,46.0,-100.00,SW,235,15.0,23.0,80,0.00,,,0.33,2.000000,,2013-10-15 13:21:00,
2013-10-15 08:32:00,52.0,46.0,-100.00,SW,235,15.0,23.0,80,0.00,,,0.33,2.000000,,2013-10-15 13:32:00,
2013-10-15 08:42:00,52.0,46.0,-100.00,SW,235,15.0,23.0,80,0.00,,,0.33,2.000000,,2013-10-15 13:42:00,
2013-10-15 09:12:00,51.0,44.0,-100.00,WSW,256,14.0,30.0,76,0.00,,,0.33,40.000000,,2013-10-15 14:12:00,
2013-10-15 09:22:00,51.0,44.0,-100.00,WSW,256,14.0,30.0,76,0.00,,,0.33,40.000000,,2013-10-15 14:22:00,
2013-10-15 09:32:00,51.0,44.0,-100.00,WSW,256,14.0,30.0,76,0.00,,,0.33,40.000000,,2013-10-15 14:32:00,
2013-10-15 09:42:00,51.0,44.0,-100.00,WSW,256,14.0,30.0,76,0.00,,,0.33,40.000000,,2013-10-15 14:42:00,
2013-10-15 10:11:00,51.0,43.0,-100.00,WSW,253,15.0,27.0,74,0.00,,,0.33,104.000000,,2013-10-15 15:11:00,
2013-10-15 10:22:00,51.0,43.0,-100.00,WSW,253,15.0,27.0,74,0.00,,,0.33,104.000000,,2013-10-15 15:22:00,
2013-10-15 10:33:00,51.0,43.0,-100.00,WSW,253,15.0,27.0,74,0.00,,,0.33,104.000000,,2013-10-15 15:33:00,
2013-10-15 10:44:00,51.0,43.0,-100.00,WSW,253,15.0,27.0,74,0.00,,,0.33,104.000000,,2013-10-15 15:44:00,
2013-10-15 11:13:00,51.0,42.0,-100.00,West,261,18.0,27.0,70,0.00,,,0.33,188.000000,,2013-10-15 16:13:00,
2013-10-15 11:23:00,51.0,42.0,-100.00,West,261,18.0,27.0,70,0.00,,,0.33,188.000000,,2013-10-15 16:23:00,
2013-10-15 11:33:00,51.0,42.0,-100.00,West,261,18.0,27.0,70,0.00,,,0.33,188.000000,,2013-10-15 16:33:00,
2013-10-15 11:42:00,51.0,42.0,-100.00,West,261,18.0,27.0,70,0.00,,,0.33,188.000000,,2013-10-15 16:42:00,
2013-10-15 12:12:00,51.0,40.0,-100.00,West,262,18.0,26.0,67,0.00,,,0.33,423.000000,,2013-10-15 17:12:00,
2013-10-15 12:22:00,51.0,40.0,-100.00,West,262,18.0,26.0,67,0.00,,,0.33,423.000000,,2013-10-15 17:22:00,
2013-10-15 12:33:00,51.0,40.0,-100.00,West,262,18.0,26.0,67,0.00,,,0.33,423.000000,,2013-10-15 17:33:00,
2013-10-15 12:42:00,51.0,40.0,-100.00,West,262,18.0,26.0,67,0.00,,,0.33,423.000000,,2013-10-15 17:42:00,
2013-10-15 13:12:00,52.0,41.0,-100.00,WSW,252,17.0,24.0,66,0.00,,,0.33,456.000000,,2013-10-15 18:12:00,
2013-10-15 13:22:00,52.0,41.0,-100.00,WSW,252,17.0,24.0,66,0.00,,,0.33,456.000000,,2013-10-15 18:22:00,
2013-10-15 13:32:00,52.0,41.0,-100.00,WSW,252,17.0,24.0,66,0.00,,,0.33,456.000000,,2013-10-15 18:32:00,
2013-10-15 13:42:00,52.0,41.0,-100.00,WSW,252,17.0,24.0,66,0.00,,,0.33,456.000000,,2013-10-15 18:42:00,
2013-10-15 14:12:00,52.0,41.0,-100.00,WSW,252,18.0,26.0,67,0.00,,,0.33,329.000000,,2013-10-15 19:12:00,
2013-10-15 14:22:00,52.0,41.0,-100.00,WSW,252,18.0,26.0,67,0.00,,,0.33,329.000000,,2013-10-15 19:22:00,
2013-10-15 14:32:00,52.0,41.0,-100.00,WSW,252,18.0,26.0,67,0.00,,,0.33,329.000000,,2013-10-15 19:32:00,
2013-10-15 14:42:00,52.0,41.0,-100.00,WSW,252,18.0,26.0,67,0.00,,,0.33,329.000000,,2013-10-15 19:42:00,
2013-10-15 15:12:00,53.0,41.0,-100.00,WSW,254,21.0,29.0,64,0.00,,,0.33,443.000000,,2013-10-15 20:12:00,
2013-10-15 15:22:00,53.0,41.0,-100.00,WSW,254,21.0,29.0,64,0.00,,,0.33,443.000000,,2013-10-15 20:22:00,
2013-10-15 15:32:00,53.0,41.0,-100.00,WSW,254,21.0,29.0,64,0.00,,,0.33,443.000000,,2013-10-15 20:32:00,
2013-10-15 15:42:00,53.0,41.0,-100.00,WSW,254,21.0,29.0,64,0.00,,,0.33,443.000000,,2013-10-15 20:42:00,
2013-10-15 16:13:00,51.0,40.0,-100.00,WSW,255,20.0,30.0,65,0.00,,,0.33,218.000000,,2013-10-15 21:13:00,
2013-10-15 16:22:00,51.0,40.0,-100.00,WSW,255,20.0,30.0,65,0.00,,,0.33,218.000000,,2013-10-15 21:22:00,
2013-10-15 16:34:00,51.0,40.0,-100.00,WSW,255,20.0,30.0,65,0.00,,,0.33,218.000000,,2013-10-15 21:34:00,
2013-10-15 16:44:00,51.0,40.0,-100.00,WSW,255,20.0,30.0,65,0.00,,,0.33,218.000000,,2013-10-15 21:44:00,
2013-10-15 17:13:00,51.0,41.0,-100.00,WSW,254,13.0,28.0,68,0.00,,,0.33,79.000000,,2013-10-15 22:13:00,
2013-10-15 17:23:00,51.0,41.0,-100.00,WSW,254,13.0,28.0,68,0.00,,,0.33,79.000000,,2013-10-15 22:23:00,
2013-10-15 17:33:00,51.0,41.0,-100.00,WSW,254,13.0,28.0,68,0.00,,,0.33,79.000000,,2013-10-15 22:33:00,
2013-10-15 17:43:00,51.0,41.0,-100.00,WSW,254,13.0,28.0,68,0.00,,,0.33,79.000000,,2013-10-15 22:43:00,
2013-10-15 18:12:00,50.0,41.0,-100.00,WSW,252,19.0,26.0,70,0.00,,,0.33,39.000000,,2013-10-15 23:12:00,
2013-10-15 18:22:00,50.0,41.0,-100.00,WSW,252,19.0,26.0,70,0.00,,,0.33,39.000000,,2013-10-15 23:22:00,
2013-10-15 18:34:00,50.0,41.0,-100.00,WSW,252,19.0,26.0,70,0.00,,,0.33,39.000000,,2013-10-15 23:34:00,
2013-10-15 18:43:00,50.0,41.0,-100.00,WSW,252,19.0,26.0,70,0.00,,,0.33,39.000000,,2013-10-15 23:43:00,
2013-10-15 19:12:00,49.0,41.0,-100.00,WSW,252,16.0,26.0,74,0.00,,,0.33,,,2013-10-16 00:12:00,
2013-10-15 19:22:00,49.0,41.0,-100.00,WSW,252,16.0,26.0,74,0.00,,,0.33,,,2013-10-16 00:22:00,
2013-10-15 19:33:00,49.0,41.0,-100.00,WSW,252,16.0,26.0,74,0.00,,,0.33,,,2013-10-16 00:33:00,
2013-10-15 19:42:00,49.0,41.0,-100.00,WSW,252,16.0,26.0,74,0.00,,,0.33,,,2013-10-16 00:42:00,
2013-10-15 20:11:00,49.0,42.0,-100.00,WSW,255,17.0,26.0,77,0.00,,,0.33,0.000000,,2013-10-16 01:11:00,
2013-10-15 20:22:00,49.0,42.0,-100.00,WSW,255,17.0,26.0,77,0.00,,,0.33,0.000000,,2013-10-16 01:22:00,
2013-10-15 20:32:00,49.0,42.0,-100.00,WSW,255,17.0,26.0,77,0.00,,,0.33,0.000000,,2013-10-16 01:32:00,
2013-10-15 20:42:00,49.0,42.0,-100.00,WSW,255,17.0,26.0,77,0.00,,,0.33,0.000000,,2013-10-16 01:42:00,
2013-10-15 21:12:00,48.0,43.0,-100.00,West,260,14.0,24.0,82,0.00,,,0.32,0.000000,,2013-10-16 02:12:00,
2013-10-15 21:22:00,48.0,43.0,-100.00,West,260,14.0,24.0,82,0.00,,,0.32,0.000000,,2013-10-16 02:22:00,
2013-10-15 21:32:00,48.0,43.0,-100.00,West,260,14.0,24.0,82,0.00,,,0.32,0.000000,,2013-10-16 02:32:00,
2013-10-15 21:42:00,48.0,43.0,-100.00,West,260,14.0,24.0,82,0.00,,,0.32,0.000000,,2013-10-16 02:42:00,
2013-10-15 22:11:00,48.0,42.0,-100.00,West,264,16.0,23.0,81,0.00,,,0.31,0.000000,,2013-10-16 03:11:00,
2013-10-15 22:22:00,48.0,42.0,-100.00,West,264,16.0,23.0,81,0.00,,,0.31,0.000000,,2013-10-16 03:22:00,
2013-10-15 22:34:00,48.0,42.0,-100.00,West,264,16.0,23.0,81,0.00,,,0.31,0.000000,,2013-10-16 03:34:00,
2013-10-15 22:45:00,48.0,42.0,-100.00,West,264,16.0,23.0,81,0.00,,,0.31,0.000000,,2013-10-16 03:45:00,
2013-10-15 23:14:00,47.0,43.0,-100.00,West,264,15.0,21.0,85,0.00,,,0.31,0.000000,,2013-10-16 04:14:00,
2013-10-15 23:24:00,47.0,43.0,-100.00,West,264,15.0,21.0,85,0.00,,,0.31,0.000000,,2013-10-16 04:24:00,
2013-10-15 23:34:00,47.0,43.0,-100.00,West,264,15.0,21.0,85,0.00,,,0.31,0.000000,,2013-10-16 04:34:00,
2013-10-15 23:43:00,47.0,43.0,-100.00,West,264,15.0,21.0,85,0.00,,,0.31,0.000000,,2013-10-16 04:43:00,